This is the latest recevied weather packets stored in our database for station/object IZ7EXI-13. If no packets are shown the sender has not sent any weather packets the latest 10 day(s).
| Time | Temp. | Humidity | Pressure | Rain* | Wind** | Luminosity | Snow |
|---|---|---|---|---|---|---|---|
| 1788556133 | 25.56° C | 45% | 1020.7 hPa | - | - | - | - |
| 1788555233 | 26.11° C | 46% | 1020.7 hPa | - | - | - | - |
| 1788554333 | 26.11° C | 46% | 1020.7 hPa | - | - | - | - |
| 1788553432 | 26.67° C | 45% | 1020.5 hPa | - | - | - | - |
| 1788552532 | 26.67° C | 45% | 1020.5 hPa | - | - | - | - |
| 1788551632 | 27.22° C | 47% | 1020.6 hPa | - | - | - | - |
| 1788550732 | 27.22° C | 47% | 1020.6 hPa | - | - | - | - |
| 1788549832 | 27.78° C | 47% | 1020.6 hPa | - | - | - | - |
| 1788548931 | 27.78° C | 48% | 1020.7 hPa | - | - | - | - |
| 1788548031 | 28.33° C | 48% | 1020.6 hPa | - | - | - | - |
| 1788547131 | 28.33° C | 48% | 1020.4 hPa | - | - | - | - |
| 1788546231 | 28.89° C | 47% | 1020.3 hPa | - | - | - | - |
| 1788545331 | 28.89° C | 47% | 1020.2 hPa | - | - | - | - |
| 1788544430 | 29.44° C | 47% | 1020.1 hPa | - | - | - | - |
| 1788543530 | 30° C | 43% | 1020 hPa | - | - | - | - |
| 1788542630 | 30.56° C | 43% | 1019.8 hPa | - | - | - | - |
| 1788541730 | 32.22° C | 41% | 1019.8 hPa | - | - | - | - |
| 1788540829 | 33.33° C | 42% | 1019.8 hPa | - | - | - | - |
| 1788539929 | 33.89° C | 43% | 1019.9 hPa | - | - | - | - |
| 1788539029 | 33.89° C | 43% | 1019.9 hPa | - | - | - | - |
| 1788538129 | 33.33° C | 40% | 1019.9 hPa | - | - | - | - |
| 1788537265 | 33.33° C | 41% | 1019.9 hPa | - | - | - | - |
| 1788537228 | 33.33° C | 41% | 1019.9 hPa | - | - | - | - |
| 1788536362 | 32.22° C | 49% | 1019.9 hPa | - | - | - | - |
| 1788536328 | 32.22° C | 49% | 1019.9 hPa | - | - | - | - |
* Rain since midnight (hover to see other rain measurements)
** Current wind speed in m/s (hover to see current wind gust speed)